Lid_Strength_Index
4 4 4 4 4 4 4 4 5 5 5 5 5 5 5 5 5 5 5 6 5 5 5 4 4 4 5 9 8 -0 -1 -1 -0 1 3 4 6 6 8 7 6 8 6 5 5 5 5
3 4 4 4 4 4 4 4 5 5 5 5 5 5 5 5 5 5 5 5 5 5 5 4 3 4 6 9 3 -1 -0 0 1 2 2 3 4 4 6 6 7 6 6 6 5 5 5
4 4 4 4 4 4 5 4 5 5 5 5 5 5 5 5 5 5 5 5 5 5 5 4 3 4 8 9 3 -1 0 1 1 2 3 2 2 4 5 7 5 6 7 6 6 6 6
4 4 4 4 4 4 5 5 5 5 5 5 5 5 5 5 5 5 5 5 4 3 4 4 3 5 10 7 -0 0 2 2 1 0 1 1 2 4 5 4 6 8 7 10 7 6 6
4 4 4 4 4 4 5 5 5 5 5 5 5 5 5 5 5 6 6 5 3 3 3 3 5 7 10 4 4 2 1 4 2 1 1 1 2 5 5 8 9 8 11 11 9 6 6
4 4 4 4 4 4 5 5 5 5 5 5 6 5 5 5 5 6 6 5 3 3 3 2 5 7 6 7 5 4 2 4 5 4 4 4 5 7 7 8 13 11 11 10 10 8 7
4 4 4 4 4 5 5 5 5 5 5 5 5 5 5 6 6 6 6 4 6 6 6 9 9 8 8 5 5 5 4 5 6 6 8 5 8 9 8 8 8 9 10 10 9 7 8
4 4 5 5 5 5 5 5 5 5 5 5 5 5 5 6 6 6 6 5 5 5 6 6 7 8 7 6 7 6 4 7 8 8 7 7 9 7 6 7 8 9 10 10 9 8 8
5 5 5 5 5 5 5 5 5 5 5 5 5 5 6 6 6 7 7 6 5 5 7 6 5 5 4 5 6 7 4 5 7 8 8 9 8 7 7 8 9 9 10 10 10 9 8
5 5 5 5 5 5 5 6 5 5 5 5 5 5 6 6 7 6 6 5 6 5 8 7 6 5 6 6 7 6 3 5 6 8 8 7 6 8 10 9 8 11 8 8 9 10 13
5 5 5 6 6 6 6 6 5 5 5 5 5 6 6 6 7 7 5 6 6 5 13 7 6 5 6 6 6 5 4 4 7 8 7 8 9 10 10 9 7 8 7 8 9 11 11
5 5 5 6 6 6 6 6 5 5 5 6 6 6 6 7 7 6 6 6 4 8 13 8 7 7 7 7 7 6 5 4 6 7 9 8 8 9 9 8 6 7 8 8 9 10 14
4 5 5 6 6 6 6 6 6 6 6 6 6 6 7 6 8 5 6 4 8 12 8 8 8 8 7 8 8 7 7 7 8 10 10 10 9 10 9 10 9 9 8 10 12 14 13
4 5 5 5 6 6 6 6 6 6 6 6 7 7 6 6 5 6 5 5 12 10 9 7 9 10 8 8 8 8 8 8 8 9 10 11 11 9 9 8 7 9 9 11 14 13 12
4 5 5 5 5 6 6 6 6 6 6 7 7 6 6 5 5 6 5 9 9 10 7 8 10 10 10 9 8 8 8 8 7 7 9 9 10 9 9 9 8 9 9 9 11 12 12
4 4 5 5 5 5 5 5 6 6 6 7 8 5 5 5 5 5 6 10 8 8 7 7 10 10 10 9 9 8 8 7 7 7 5 7 10 9 9 8 8 8 8 10 10 13 14
4 4 5 5 5 5 5 5 5 6 6 7 6 4 6 6 6 5 8 8 8 7 7 8 8 9 9 9 9 9 9 8 7 8 7 7 8 8 8 8 9 9 9 11 10 11 12
4 5 5 5 5 5 5 5 5 6 6 7 7 6 5 7 7 8 8 7 8 7 7 8 8 7 8 7 9 9 9 7 6 7 8 7 8 9 9 8 7 8 8 8 10 12 11
4 5 5 5 5 4 5 4 5 5 6 7 6 5 4 6 8 8 8 7 7 7 8 9 8 7 7 7 9 8 8 6 7 8 8 8 8 10 9 8 7 8 8 9 9 9 11
5 5 5 5 5 4 4 5 5 5 5 5 5 7 6 6 7 8 8 8 8 6 7 8 8 7 7 8 7 8 8 6 7 6 4 6 9 8 10 9 7 9 8 9 8 10 10
5 5 5 5 5 5 4 5 4 5 5 5 6 8 7 8 7 6 6 7 8 8 6 6 7 8 8 9 8 8 7 7 7 6 6 7 9 9 9 8 8 8 8 8 9 8 9
5 6 6 5 5 5 5 4 4 5 6 4 6 7 6 6 7 7 9 8 8 7 7 7 8 7 7 8 7 8 7 7 8 8 7 7 10 9 10 8 9 9 9 9 9 9 9
5 5 5 5 5 5 5 5 5 6 6 5 5 5 6 9 7 8 8 8 8 8 7 7 7 7 8 7 7 8 8 8 8 8 8 8 9 10 11 9 9 11 9 9 10 10 9
5 5 5 5 5 5 5 5 5 5 6 7 7 6 6 8 7 8 8 8 8 8 8 7 7 7 7 7 8 9 9 9 8 9 9 8 9 9 11 10 15 10 7 8 9 9 9
5 5 5 5 5 5 5 5 5 5 6 6 6 5 6 8 7 7 7 7 7 7 7 7 7 7 7 9 9 10 10 10 10 10 10 9 8 11 12 12 11 11 9 9 10 11 8
5 5 5 4 4 5 5 5 5 5 5 5 6 5 5 7 7 6 7 8 8 8 7 6 5 6 7 8 9 11 11 11 11 10 10 10 8 9 11 13 15 10 7 6 7 13 7
5 5 5 5 5 4 4 4 4 4 5 6 5 5 5 6 4 5 6 7 6 8 7 7 7 6 7 8 10 10 10 11 11 10 10 10 10 10 11 12 10 8 7 6 12 11 6
5 5 5 5 5 4 4 4 4 4 4 5 5 5 5 6 6 5 4 5 5 6 7 6 6 6 6 8 9 9 10 9 10 9 10 10 10 11 10 12 13 6 7 10 8 6 6
5 5 5 5 5 4 4 3 4 4 4 4 6 5 4 5 5 4 3 3 4 4 5 5 6 7 6 8 8 8 10 9 10 11 8 11 9 9 10 10 7 6 6 5 4 6 6